Retour au catalogue

COSMOS 2251 DEB

ActifLEO
NORAD 40239·DEBRIS·🇷🇺 Russia

Lancé Jun 16, 1993 depuis Plesetsk Cosmodrome

Loading…

Prochains Passages (prochaines 24 heures)

TLE

VieillissantSource: Space-Track

Époque: Sep 9, 2026, 23:41 UTC

1 40239U 93036BVU 26252.98707269  .00000835  00000-0  16142-3 0  9997
2 40239  74.0282 115.9398 0085144 160.2234 267.9449 14.62793324635768

Suivez COSMOS 2251 DEB en temps réel avec AllMySat

Download on the App Store